Regional Weather Roundup
Issued by NWS

Home | Current Version | Previous Version | Text Only | Print | Product List | Glossary On
Versions: 1 2 3 4 5 6 7 8 9 10 11 12 13 14 15 16 17 18 19 20 21 22 23 24 25 26 27 28 29 30 31 32 33 34 35 36 37 38 39 40 41 42 43 44 45 46 47 48 49 50
000
ASUS44 KMEG 272310
RWRTN
TENNESSEE HOURLY STATE WEATHER ROUNDUP
NATIONAL WEATHER SERVICE MEMPHIS TN
500 PM CST TUE JAN 27 2015

TNZ002-004-019-021-049-052-054-088>092-280000-
WEST TENNESSEE

CITY           SKY/WX    TMP DP  RH WIND       PRES   REMARKS
MEMPHIS INTL   CLEAR     52  34  50 N7        30.14R
NWS MEMPHIS      N/A     52 N/A N/A MISG        N/A
JACKSON        CLEAR     46  32  58 N12       30.15R
DYERSBURG      CLEAR     45  25  45 N9        30.19R
UNION CITY     PTCLDY    41  34  75 N8        30.16R
PARIS          MOCLDY    39  28  65 N8        30.16R WCI  34
LEXINGTON      CLEAR     45  28  53 N8        30.13R
SAVANNAH         N/A     48  30  49 N10       30.13R
$$

TNZ008-025-027-028-033-062-065-066-280000-
NORTH MIDDLE TENNESSEE

CITY           SKY/WX    TMP DP  RH WIND       PRES   REMARKS
NASHVILLE      CLOUDY    39  30  70 N10       30.15R WCI  32
CLARKSVILLE    CLOUDY    37  30  75 NW9       30.17R WCI  30
SMYRNA         CLOUDY    39  31  73 N9        30.16R WCI  33
COOKEVILLE     CLOUDY    36  30  80 N6        30.10R WCI  31
CROSSVILLE     CLOUDY    32  27  81 NW6       30.06R WCI  26
$$

TNZ061-075-076-078-094-096-097-280000-
SOUTH MIDDLE TENNESSEE

CITY           SKY/WX    TMP DP  RH WIND       PRES   REMARKS
FAYETTEVILLE   PTCLDY    39  28  65 N16G30    30.08R WCI  30
TULLAHOMA      CLOUDY    36  28  75 N9        30.10R WCI  29
WINCHESTER     CLOUDY    37  30  75 N7        30.10R WCI  32
MCMINNVILLE    CLOUDY    36  30  80 N6        30.11R WCI  31
COLUMBIA       PTCLDY    43  36  75 N9        30.11R
SHELBYVILLE    CLOUDY    37  32  81 N12       30.12R WCI  30
$$

TNZ017-018-042-046-047-280000-
NORTHEAST TENNESSEE

CITY           SKY/WX    TMP DP  RH WIND       PRES   REMARKS
TRI CITIES     MOCLDY    32  21  64 NW10      30.01R WCI  24
ELIZABETHTON   PTCLDY    30  19  64 NW8       29.98R WCI  23
$$

TNZ012-013-036-069-073-074-280000-
CENTRAL EAST TENNESSEE

CITY           SKY/WX    TMP DP  RH WIND       PRES   REMARKS
KNOXVILLE      CLOUDY    35  28  75 CALM      30.07R
OAK RIDGE      CLOUDY    37  26  64 CALM      30.09R
GATLINBURG     CLOUDY    32  25  74 NW7       30.07R WCI  26
MORRISTOWN     MOCLDY    32  27  80 NW7       30.05R WCI  26
$$

TNZ083-085-099-280000-
SOUTHEAST TENNESSEE

CITY           SKY/WX    TMP DP  RH WIND       PRES   REMARKS
CHATTANOOGA    MOCLDY    40  31  70 N12       30.10R WCI  33
$$

SKY/WX REPORTED AS FAIR MEANS FEW OR NO CLOUDS BELOW
12 THOUSAND FEET.




USA.gov is the U.S. government's official web portal to all federal, state and local government web resources and services.